Vancouver, WA

4:22 PM PST on February 24, 2017 (GMT -0800)
Pearson

Weather History for KVUO - February, 2014

Change the Weather History Date:

Tuesday, February 25, 2014

  Actual Average Record
Temperature  
Mean Temperature 44 °F 45 °F  
Max Temperature 52 °F 54 °F 69 °F (1992)
Min Temperature 35 °F 36 °F 20 °F (1993)
Degree Days  
Heating Degree Days 21    
Month to date heating degree days 650  
Since 1 July heating degree days 3399  
Cooling Degree Days 0    
Month to date cooling degree days 0  
Year to date cooling degree days 0  
Moisture  
Dew Point 34 °F    
Average Humidity 71    
Maximum Humidity 92    
Minimum Humidity 50    
Precipitation  
Precipitation T in 0.14 in 1.14 in (1940)
Month to date precipitation 4.18 3.55  
Year to date precipitation 6.72 9.05  
Sea Level Pressure  
Sea Level Pressure 30.04 in    
Wind  
Wind Speed 6 mph (ESE)    
Max Wind Speed 21 mph    
Max Gust Speed 26 mph    
Visibility 10 miles    
Events      
T = Trace of Precipitation, MM = Missing Value Source: NWS Daily Summary

Daily Weather History Graph

Daily Weather History Graph

Search for Another Location

Airport or City:

Trip Planner

Search our weather history database for the weather conditions in past years. The results will help you decide how hot, cold, wet, or windy it might be!

Date:

Astronomy

Feb. 25, 2014 Rise Set
Actual Time 6:55 AM PST 5:52 PM PST
Civil Twilight 6:25 AM PST 6:22 PM PST
Nautical Twilight 5:51 AM PST 6:56 PM PST
Astronomical Twilight 5:17 AM PST 7:30 PM PST
Moon 4:04 AM PST 1:56 PM PST
Length of Visible Light 11h 56m
Length of Day
10h 56m
Waning Crescent, 17% of the Moon is Illuminated
Feb 25
Waning Crescent
Mar 1
New
Mar 8
First Quarter
Mar 16
Full
Mar 23
Last Quarter

Hourly Weather History & Observations

Time (PST) Temp. Windchill Dew Point Humidity Pressure Visibility Wind Dir Wind Speed Gust Speed Precip Events Conditions
12:53 AM 39.0 °F - 36.0 °F 89% 30.07 in 10.0 mi Calm Calm - N/A   Partly Cloudy
1:53 AM 37.9 °F - 36.0 °F 93% 30.07 in 10.0 mi Calm Calm - N/A   Clear
2:53 AM 41.0 °F - 36.0 °F 82% 30.06 in 10.0 mi Calm Calm - N/A   Overcast
3:53 AM 41.0 °F - 36.0 °F 82% 30.06 in 10.0 mi Calm Calm - N/A   Overcast
4:53 AM 39.9 °F - 37.0 °F 89% 30.06 in 10.0 mi Calm Calm - 0.00 in   Mostly Cloudy
5:53 AM 39.0 °F - 37.0 °F 93% 30.06 in 10.0 mi Calm Calm - N/A   Scattered Clouds
6:53 AM 37.9 °F - 36.0 °F 93% 30.07 in 10.0 mi Calm Calm - N/A   Clear
7:53 AM 39.9 °F - 37.0 °F 89% 30.08 in 10.0 mi Calm Calm - N/A   Clear
8:53 AM 42.1 °F - 37.9 °F 85% 30.09 in 10.0 mi Calm Calm - N/A   Clear
9:53 AM 45.0 °F - 36.0 °F 71% 30.09 in 10.0 mi Calm Calm - N/A   Clear
10:53 AM 48.0 °F - 35.1 °F 61% 30.08 in 10.0 mi NW 3.5 mph - N/A   Partly Cloudy
11:53 AM 48.9 °F - 37.0 °F 64% 30.07 in 10.0 mi Variable 3.5 mph - N/A   Scattered Clouds
12:53 PM 50.0 °F - 33.1 °F 52% 30.06 in 10.0 mi ESE 12.7 mph - N/A   Scattered Clouds
1:53 PM 52.0 °F - 33.1 °F 49% 30.03 in 10.0 mi ESE 16.1 mph - N/A   Clear
2:53 PM 52.0 °F - 33.1 °F 49% 30.02 in 10.0 mi ESE 15.0 mph 23.0 mph N/A   Clear
3:53 PM 50.0 °F - 32.0 °F 50% 30.01 in 10.0 mi SE 17.3 mph - N/A   Clear
4:53 PM 46.9 °F - 30.9 °F 54% 30.00 in 10.0 mi SE 12.7 mph - N/A   Clear
5:53 PM 44.1 °F 38.6 °F 30.0 °F 58% 30.00 in 10.0 mi ESE 10.4 mph - N/A   Clear
6:53 PM 43.0 °F 36.0 °F 30.0 °F 60% 30.01 in 10.0 mi SE 13.8 mph 19.6 mph N/A   Clear
7:53 PM 43.0 °F 38.8 °F 30.0 °F 60% 30.01 in 10.0 mi ESE 6.9 mph - N/A   Clear
8:53 PM 42.1 °F 37.7 °F 28.9 °F 60% 30.02 in 10.0 mi ESE 6.9 mph - N/A   Clear
9:53 PM 42.1 °F 36.6 °F 28.9 °F 60% 30.02 in 10.0 mi SE 9.2 mph - N/A   Clear
10:53 PM 41.0 °F 37.1 °F 28.9 °F 62% 30.01 in 10.0 mi East 5.8 mph - N/A   Clear
11:53 PM 36.0 °F - 30.0 °F 79% 30.01 in 10.0 mi Calm Calm - N/A   Clear